Time,TemperatureF,DewpointF,PressureIn,WindDirection,WindDirectionDegrees,WindSpeedMPH,WindSpeedGustMPH,Humidity,HourlyPrecipIn,Conditions,Clouds,dailyrainin,SoftwareType,DateUTC
2017-02-27 00:02:00,26.7,12.3,30.23,West,263,8.0,8.0,54,0.00,,,0.01,Wunderground v.1.15,2017-02-27 05:02:00,
2017-02-27 00:08:00,26.6,12.6,30.24,SW,232,7.0,8.0,55,0.00,,,0.00,Wunderground v.1.15,2017-02-27 05:08:00,
2017-02-27 00:14:00,26.7,12.7,30.24,SW,223,7.0,11.0,55,0.00,,,0.00,Wunderground v.1.15,2017-02-27 05:14:00,
2017-02-27 00:20:00,26.6,12.6,30.24,SSW,204,7.0,7.0,55,0.00,,,0.00,Wunderground v.1.15,2017-02-27 05:20:00,
2017-02-27 00:26:00,26.7,13.1,30.25,SW,216,6.0,7.0,56,0.00,,,0.00,Wunderground v.1.15,2017-02-27 05:26:00,
2017-02-27 00:32:00,26.7,12.7,30.25,SW,228,6.0,9.0,55,0.00,,,0.00,Wunderground v.1.15,2017-02-27 05:32:00,
2017-02-27 00:38:00,26.5,12.9,30.25,SW,215,6.0,9.0,56,0.00,,,0.00,Wunderground v.1.15,2017-02-27 05:38:00,
2017-02-27 00:44:00,26.6,13.4,30.25,SW,225,6.0,10.0,57,0.00,,,0.00,Wunderground v.1.15,2017-02-27 05:44:00,
2017-02-27 00:50:00,26.6,13.4,30.25,SSW,212,5.0,5.0,57,0.00,,,0.00,Wunderground v.1.15,2017-02-27 05:50:00,
2017-02-27 00:56:00,26.6,13.8,30.25,WSW,248,4.0,10.0,58,0.00,,,0.00,Wunderground v.1.15,2017-02-27 05:56:00,
2017-02-27 01:02:00,26.6,13.8,30.26,SW,229,5.0,7.0,58,0.00,,,0.00,Wunderground v.1.15,2017-02-27 06:02:00,
2017-02-27 01:08:00,26.6,14.2,30.25,WSW,243,6.0,9.0,59,0.00,,,0.00,Wunderground v.1.15,2017-02-27 06:08:00,
2017-02-27 01:14:00,26.6,14.2,30.26,WSW,238,7.0,13.0,59,0.00,,,0.00,Wunderground v.1.15,2017-02-27 06:14:00,
2017-02-27 01:20:00,26.7,14.7,30.26,WSW,239,7.0,7.0,60,0.00,,,0.00,Wunderground v.1.15,2017-02-27 06:20:00,
2017-02-27 01:26:00,26.7,15.0,30.26,WNW,290,7.0,11.0,61,0.00,,,0.00,Wunderground v.1.15,2017-02-27 06:26:00,
2017-02-27 01:32:00,26.6,14.9,30.26,West,273,8.0,13.0,61,0.00,,,0.00,Wunderground v.1.15,2017-02-27 06:32:00,
2017-02-27 01:38:00,26.6,15.3,30.26,SW,217,9.0,16.0,62,0.00,,,0.00,Wunderground v.1.15,2017-02-27 06:38:00,
2017-02-27 01:44:00,26.5,15.2,30.26,WSW,246,9.0,13.0,62,0.00,,,0.00,Wunderground v.1.15,2017-02-27 06:44:00,
2017-02-27 01:50:00,26.7,15.8,30.26,WNW,288,10.0,11.0,63,0.00,,,0.00,Wunderground v.1.15,2017-02-27 06:50:00,
2017-02-27 01:56:00,26.6,15.7,30.26,WSW,242,10.0,11.0,63,0.00,,,0.00,Wunderground v.1.15,2017-02-27 06:56:00,
2017-02-27 02:02:00,26.8,15.9,30.26,SW,227,9.0,9.0,63,0.00,,,0.00,Wunderground v.1.15,2017-02-27 07:02:00,
2017-02-27 02:08:00,27.0,16.1,30.26,WSW,248,10.0,14.0,63,0.00,,,0.00,Wunderground v.1.15,2017-02-27 07:08:00,
2017-02-27 02:14:00,27.1,15.8,30.26,West,278,10.0,20.0,62,0.00,,,0.00,Wunderground v.1.15,2017-02-27 07:14:00,
2017-02-27 02:20:00,27.1,16.2,30.27,SW,234,9.0,9.0,63,0.00,,,0.00,Wunderground v.1.15,2017-02-27 07:20:00,
2017-02-27 02:26:00,27.2,16.3,30.27,WSW,243,10.0,13.0,63,0.00,,,0.00,Wunderground v.1.15,2017-02-27 07:26:00,
2017-02-27 02:32:00,27.2,16.3,30.27,SW,235,10.0,11.0,63,0.00,,,0.00,Wunderground v.1.15,2017-02-27 07:32:00,
2017-02-27 02:38:00,27.1,16.2,30.27,SW,223,10.0,19.0,63,0.00,,,0.00,Wunderground v.1.15,2017-02-27 07:38:00,
2017-02-27 02:44:00,27.1,16.2,30.27,SW,236,10.0,15.0,63,0.00,,,0.00,Wunderground v.1.15,2017-02-27 07:44:00,
2017-02-27 02:50:00,27.0,16.4,30.27,SW,230,9.0,9.0,64,0.00,,,0.00,Wunderground v.1.15,2017-02-27 07:50:00,
2017-02-27 02:56:00,27.0,16.4,30.27,WSW,257,8.0,17.0,64,0.00,,,0.00,Wunderground v.1.15,2017-02-27 07:56:00,
2017-02-27 03:02:00,27.1,16.5,30.27,WSW,244,9.0,9.0,64,0.00,,,0.00,Wunderground v.1.15,2017-02-27 08:02:00,
2017-02-27 03:08:00,27.0,16.4,30.27,SW,221,8.0,9.0,64,0.00,,,0.00,Wunderground v.1.15,2017-02-27 08:08:00,
2017-02-27 03:14:00,27.3,16.7,30.27,WSW,241,9.0,15.0,64,0.00,,,0.00,Wunderground v.1.15,2017-02-27 08:14:00,
2017-02-27 03:20:00,27.4,16.8,30.27,SW,234,10.0,10.0,64,0.00,,,0.00,Wunderground v.1.15,2017-02-27 08:20:00,
2017-02-27 03:26:00,27.4,16.8,30.27,SW,215,9.0,13.0,64,0.00,,,0.00,Wunderground v.1.15,2017-02-27 08:26:00,
2017-02-27 03:32:00,27.5,16.9,30.27,SW,231,9.0,9.0,64,0.00,,,0.00,Wunderground v.1.15,2017-02-27 08:32:00,
2017-02-27 03:38:00,27.5,16.9,30.27,SW,232,9.0,13.0,64,0.00,,,0.00,Wunderground v.1.15,2017-02-27 08:38:00,
2017-02-27 03:44:00,27.5,16.5,30.27,SW,221,9.0,11.0,63,0.00,,,0.00,Wunderground v.1.15,2017-02-27 08:44:00,
2017-02-27 03:50:00,27.5,16.9,30.27,WSW,241,10.0,10.0,64,0.00,,,0.00,Wunderground v.1.15,2017-02-27 08:50:00,
2017-02-27 03:56:00,27.6,16.6,30.27,WSW,237,10.0,17.0,63,0.00,,,0.00,Wunderground v.1.15,2017-02-27 08:56:00,
2017-02-27 04:02:00,27.5,16.9,30.28,SW,232,10.0,10.0,64,0.00,,,0.00,Wunderground v.1.15,2017-02-27 09:02:00,
2017-02-27 04:08:00,27.5,16.9,30.27,West,262,10.0,13.0,64,0.00,,,0.00,Wunderground v.1.15,2017-02-27 09:08:00,
2017-02-27 04:14:00,27.7,17.1,30.27,West,259,11.0,23.0,64,0.00,,,0.00,Wunderground v.1.15,2017-02-27 09:14:00,
2017-02-27 04:20:00,27.8,17.2,30.28,SW,233,12.0,14.0,64,0.00,,,0.00,Wunderground v.1.15,2017-02-27 09:20:00,
2017-02-27 04:26:00,27.9,17.3,30.27,SW,221,12.0,14.0,64,0.00,,,0.00,Wunderground v.1.15,2017-02-27 09:26:00,
2017-02-27 04:32:00,27.9,17.3,30.27,West,260,12.0,12.0,64,0.00,,,0.00,Wunderground v.1.15,2017-02-27 09:32:00,
2017-02-27 04:38:00,27.8,17.6,30.28,SW,235,11.0,14.0,65,0.00,,,0.00,Wunderground v.1.15,2017-02-27 09:38:00,
2017-02-27 04:44:00,27.8,17.2,30.28,WSW,248,12.0,12.0,64,0.00,,,0.00,Wunderground v.1.15,2017-02-27 09:44:00,
2017-02-27 04:50:00,27.8,17.6,30.28,SW,225,11.0,11.0,65,0.00,,,0.00,Wunderground v.1.15,2017-02-27 09:50:00,
2017-02-27 04:56:00,27.9,17.3,30.28,SW,232,12.0,14.0,64,0.00,,,0.00,Wunderground v.1.15,2017-02-27 09:56:00,
2017-02-27 05:02:00,27.8,17.6,30.28,WSW,237,12.0,13.0,65,0.00,,,0.00,Wunderground v.1.15,2017-02-27 10:02:00,
2017-02-27 05:08:00,27.9,17.3,30.28,WSW,256,11.0,14.0,64,0.00,,,0.00,Wunderground v.1.15,2017-02-27 10:08:00,
2017-02-27 05:14:00,27.7,17.5,30.29,SW,232,12.0,13.0,65,0.00,,,0.00,Wunderground v.1.15,2017-02-27 10:14:00,
2017-02-27 05:20:00,27.4,17.2,30.29,SSW,213,10.0,10.0,65,0.00,,,0.00,Wunderground v.1.15,2017-02-27 10:20:00,
2017-02-27 05:26:00,27.1,17.2,30.29,SW,221,9.0,11.0,66,0.00,,,0.00,Wunderground v.1.15,2017-02-27 10:26:00,
2017-02-27 05:32:00,27.1,17.6,30.29,SW,223,9.0,13.0,67,0.00,,,0.00,Wunderground v.1.15,2017-02-27 10:32:00,
2017-02-27 05:38:00,27.3,17.4,30.29,WSW,239,9.0,13.0,66,0.00,,,0.00,Wunderground v.1.15,2017-02-27 10:38:00,
2017-02-27 05:44:00,27.1,17.6,30.30,SW,231,9.0,13.0,67,0.00,,,0.00,Wunderground v.1.15,2017-02-27 10:44:00,
2017-02-27 05:50:00,26.8,17.3,30.30,SW,236,9.0,9.0,67,0.00,,,0.00,Wunderground v.1.15,2017-02-27 10:50:00,
2017-02-27 05:56:00,26.2,17.1,30.30,SW,223,8.0,9.0,68,0.00,,,0.00,Wunderground v.1.15,2017-02-27 10:56:00,
2017-02-27 06:02:00,26.0,17.2,30.30,WSW,243,8.0,8.0,69,0.00,,,0.00,Wunderground v.1.15,2017-02-27 11:02:00,
2017-02-27 06:08:00,26.1,17.3,30.30,WSW,248,9.0,12.0,69,0.00,,,0.00,Wunderground v.1.15,2017-02-27 11:08:00,
2017-02-27 06:14:00,26.2,17.4,30.30,SW,227,9.0,17.0,69,0.00,,,0.00,Wunderground v.1.15,2017-02-27 11:14:00,
2017-02-27 06:20:00,26.2,17.4,30.30,SW,217,9.0,13.0,69,0.00,,,0.00,Wunderground v.1.15,2017-02-27 11:20:00,
2017-02-27 06:26:00,26.1,17.3,30.30,SW,225,8.0,13.0,69,0.00,,,0.00,Wunderground v.1.15,2017-02-27 11:26:00,
2017-02-27 06:28:00,26.0,17.2,30.30,SW,216,8.0,13.0,69,0.00,,,0.00,Wunderground v.1.15,2017-02-27 11:28:00,
2017-02-27 06:34:00,25.8,17.4,30.30,SSW,205,8.0,8.0,70,0.00,,,0.00,Wunderground v.1.15,2017-02-27 11:34:00,
2017-02-27 06:40:00,25.9,17.5,30.31,SW,219,8.0,8.0,70,0.00,,,0.00,Wunderground v.1.15,2017-02-27 11:40:00,
2017-02-27 06:46:00,26.1,17.6,30.31,WSW,241,9.0,14.0,70,0.00,,,0.00,Wunderground v.1.15,2017-02-27 11:46:00,
2017-02-27 06:52:00,26.1,17.6,30.30,WSW,242,8.0,9.0,70,0.00,,,0.00,Wunderground v.1.15,2017-02-27 11:52:00,
2017-02-27 06:58:00,26.1,17.6,30.30,West,259,7.0,12.0,70,0.00,,,0.00,Wunderground v.1.15,2017-02-27 11:58:00,
2017-02-27 07:04:00,26.3,17.5,30.30,WSW,251,7.0,10.0,69,0.00,,,0.00,Wunderground v.1.15,2017-02-27 12:04:00,
2017-02-27 07:10:00,26.6,17.8,30.31,SW,218,6.0,6.0,69,0.00,,,0.00,Wunderground v.1.15,2017-02-27 12:10:00,
2017-02-27 07:16:00,26.7,17.9,30.31,WSW,240,5.0,7.0,69,0.00,,,0.00,Wunderground v.1.15,2017-02-27 12:16:00,
2017-02-27 07:22:00,27.1,18.3,30.31,SW,236,5.0,5.0,69,0.00,,,0.00,Wunderground v.1.15,2017-02-27 12:22:00,
2017-02-27 07:28:00,27.2,18.0,30.31,West,259,5.0,9.0,68,0.00,,,0.00,Wunderground v.1.15,2017-02-27 12:28:00,
2017-02-27 07:34:00,27.3,18.1,30.32,SW,224,5.0,6.0,68,0.00,,,0.00,Wunderground v.1.15,2017-02-27 12:34:00,
2017-02-27 07:40:00,27.4,18.2,30.31,SSW,209,6.0,6.0,68,0.00,,,0.00,Wunderground v.1.15,2017-02-27 12:40:00,
2017-02-27 07:46:00,27.6,18.4,30.32,WSW,257,7.0,12.0,68,0.00,,,0.00,Wunderground v.1.15,2017-02-27 12:46:00,
2017-02-27 07:52:00,27.8,18.3,30.32,SW,233,8.0,8.0,67,0.00,,,0.00,Wunderground v.1.15,2017-02-27 12:52:00,
2017-02-27 07:58:00,28.1,18.5,30.32,SW,234,8.0,11.0,67,0.00,,,0.00,Wunderground v.1.15,2017-02-27 12:58:00,
2017-02-27 08:04:00,28.3,18.4,30.32,SW,235,7.0,14.0,66,0.00,,,0.00,Wunderground v.1.15,2017-02-27 13:04:00,
2017-02-27 08:10:00,28.6,18.7,30.32,WSW,247,8.0,12.0,66,0.00,,,0.00,Wunderground v.1.15,2017-02-27 13:10:00,
2017-02-27 08:16:00,28.9,18.6,30.33,WSW,239,9.0,12.0,65,0.00,,,0.00,Wunderground v.1.15,2017-02-27 13:16:00,
2017-02-27 08:22:00,29.3,19.0,30.33,West,271,8.0,9.0,65,0.00,,,0.00,Wunderground v.1.15,2017-02-27 13:22:00,
2017-02-27 08:28:00,29.6,18.9,30.34,WSW,245,6.0,11.0,64,0.00,,,0.00,Wunderground v.1.15,2017-02-27 13:28:00,
2017-02-27 08:34:00,30.0,19.3,30.34,SW,229,7.0,9.0,64,0.00,,,0.00,Wunderground v.1.15,2017-02-27 13:34:00,
2017-02-27 08:40:00,30.4,19.3,30.34,SW,235,7.0,7.0,63,0.00,,,0.00,Wunderground v.1.15,2017-02-27 13:40:00,
2017-02-27 08:46:00,30.8,19.3,30.34,WSW,246,7.0,8.0,62,0.00,,,0.00,Wunderground v.1.15,2017-02-27 13:46:00,
2017-02-27 08:52:00,31.1,19.6,30.34,WSW,245,7.0,14.0,62,0.00,,,0.00,Wunderground v.1.15,2017-02-27 13:52:00,
2017-02-27 08:58:00,31.6,19.7,30.34,SSW,206,7.0,14.0,61,0.00,,,0.00,Wunderground v.1.15,2017-02-27 13:58:00,
2017-02-27 09:04:00,31.9,19.6,30.34,WSW,237,7.0,9.0,60,0.00,,,0.00,Wunderground v.1.15,2017-02-27 14:04:00,
2017-02-27 09:10:00,32.3,20.0,30.34,SW,226,8.0,8.0,60,0.00,,,0.00,Wunderground v.1.15,2017-02-27 14:10:00,
2017-02-27 09:16:00,32.8,20.0,30.34,WSW,255,7.0,8.0,59,0.00,,,0.00,Wunderground v.1.15,2017-02-27 14:16:00,
2017-02-27 09:22:00,33.2,20.0,30.34,WSW,239,7.0,13.0,58,0.00,,,0.00,Wunderground v.1.15,2017-02-27 14:22:00,
2017-02-27 09:28:00,33.6,20.4,30.34,WSW,239,9.0,13.0,58,0.00,,,0.00,Wunderground v.1.15,2017-02-27 14:28:00,
2017-02-27 09:34:00,34.1,20.4,30.34,SW,232,7.0,9.0,57,0.00,,,0.00,Wunderground v.1.15,2017-02-27 14:34:00,
2017-02-27 09:40:00,34.4,20.3,30.35,SW,220,6.0,6.0,56,0.00,,,0.00,Wunderground v.1.15,2017-02-27 14:40:00,
2017-02-27 09:46:00,34.5,20.8,30.35,West,269,6.0,7.0,57,0.00,,,0.00,Wunderground v.1.15,2017-02-27 14:46:00,
2017-02-27 09:52:00,34.5,20.4,30.34,SW,233,7.0,10.0,56,0.00,,,0.00,Wunderground v.1.15,2017-02-27 14:52:00,
2017-02-27 09:58:00,34.8,20.7,30.34,WNW,290,8.0,10.0,56,0.00,,,0.00,Wunderground v.1.15,2017-02-27 14:58:00,
2017-02-27 10:04:00,35.3,20.7,30.34,West,270,9.0,14.0,55,0.00,,,0.00,Wunderground v.1.15,2017-02-27 15:04:00,
2017-02-27 10:10:00,35.7,21.1,30.34,SSW,205,9.0,9.0,55,0.00,,,0.00,Wunderground v.1.15,2017-02-27 15:10:00,
2017-02-27 10:16:00,36.1,21.0,30.33,WSW,250,10.0,14.0,54,0.00,,,0.00,Wunderground v.1.15,2017-02-27 15:16:00,
2017-02-27 10:22:00,36.3,20.8,30.33,SW,230,10.0,12.0,53,0.00,,,0.00,Wunderground v.1.15,2017-02-27 15:22:00,
2017-02-27 10:28:00,36.6,21.1,30.33,SW,229,9.0,17.0,53,0.00,,,0.00,Wunderground v.1.15,2017-02-27 15:28:00,
2017-02-27 10:34:00,37.0,21.4,30.33,WNW,298,9.0,15.0,53,0.00,,,0.00,Wunderground v.1.15,2017-02-27 15:34:00,
2017-02-27 10:40:00,37.5,21.5,30.33,WSW,251,8.0,8.0,52,0.00,,,0.00,Wunderground v.1.15,2017-02-27 15:40:00,
2017-02-27 10:46:00,37.8,21.7,30.33,West,261,8.0,17.0,52,0.00,,,0.00,Wunderground v.1.15,2017-02-27 15:46:00,
2017-02-27 10:52:00,38.0,21.5,30.33,SW,215,9.0,9.0,51,0.00,,,0.00,Wunderground v.1.15,2017-02-27 15:52:00,
2017-02-27 10:58:00,37.9,21.4,30.33,WSW,250,10.0,14.0,51,0.00,,,0.00,Wunderground v.1.15,2017-02-27 15:58:00,
2017-02-27 11:04:00,38.0,21.5,30.33,WSW,239,11.0,17.0,51,0.00,,,0.00,Wunderground v.1.15,2017-02-27 16:04:00,
2017-02-27 11:10:00,37.9,21.4,30.33,SSW,209,11.0,11.0,51,0.00,,,0.00,Wunderground v.1.15,2017-02-27 16:10:00,
2017-02-27 11:16:00,38.3,21.7,30.33,SW,233,11.0,15.0,51,0.00,,,0.00,Wunderground v.1.15,2017-02-27 16:16:00,
2017-02-27 11:22:00,38.8,21.7,30.33,SW,232,11.0,11.0,50,0.00,,,0.00,Wunderground v.1.15,2017-02-27 16:22:00,
2017-02-27 11:28:00,38.8,21.7,30.33,SW,228,12.0,19.0,50,0.00,,,0.00,Wunderground v.1.15,2017-02-27 16:28:00,
2017-02-27 11:34:00,38.8,21.7,30.34,WSW,242,13.0,13.0,50,0.00,,,0.00,Wunderground v.1.15,2017-02-27 16:34:00,
2017-02-27 11:40:00,39.0,21.9,30.33,West,266,13.0,13.0,50,0.00,,,0.00,Wunderground v.1.15,2017-02-27 16:40:00,
2017-02-27 11:46:00,39.5,21.9,30.33,West,265,12.0,14.0,49,0.00,,,0.00,Wunderground v.1.15,2017-02-27 16:46:00,
2017-02-27 11:52:00,39.7,22.1,30.33,WNW,283,11.0,19.0,49,0.00,,,0.00,Wunderground v.1.15,2017-02-27 16:52:00,
2017-02-27 11:58:00,40.0,22.4,30.33,SSW,203,11.0,19.0,49,0.00,,,0.00,Wunderground v.1.15,2017-02-27 16:58:00,
2017-02-27 12:04:00,40.7,22.5,30.33,WSW,238,8.0,10.0,48,0.00,,,0.00,Wunderground v.1.15,2017-02-27 17:04:00,
2017-02-27 12:10:00,40.7,22.0,30.33,SW,229,8.0,8.0,47,0.00,,,0.00,Wunderground v.1.15,2017-02-27 17:10:00,
2017-02-27 12:16:00,40.9,22.7,30.33,SW,218,8.0,12.0,48,0.00,,,0.00,Wunderground v.1.15,2017-02-27 17:16:00,
2017-02-27 12:22:00,40.8,22.6,30.32,SW,221,8.0,8.0,48,0.00,,,0.00,Wunderground v.1.15,2017-02-27 17:22:00,
2017-02-27 12:28:00,40.8,22.6,30.32,SW,232,9.0,16.0,48,0.00,,,0.00,Wunderground v.1.15,2017-02-27 17:28:00,
2017-02-27 12:34:00,41.2,23.0,30.32,SW,229,9.0,16.0,48,0.00,,,0.00,Wunderground v.1.15,2017-02-27 17:34:00,
2017-02-27 12:40:00,42.2,23.4,30.32,SW,230,9.0,10.0,47,0.00,,,0.00,Wunderground v.1.15,2017-02-27 17:40:00,
2017-02-27 12:46:00,42.4,23.1,30.32,WSW,257,10.0,17.0,46,0.00,,,0.00,Wunderground v.1.15,2017-02-27 17:46:00,
2017-02-27 12:52:00,43.1,23.7,30.31,WSW,242,10.0,11.0,46,0.00,,,0.00,Wunderground v.1.15,2017-02-27 17:52:00,
2017-02-27 12:58:00,43.3,23.9,30.31,WSW,253,11.0,11.0,46,0.00,,,0.00,Wunderground v.1.15,2017-02-27 17:58:00,
2017-02-27 13:04:00,44.0,24.0,30.31,SSE,167,13.0,17.0,45,0.00,,,0.00,Wunderground v.1.15,2017-02-27 18:04:00,
2017-02-27 13:10:00,43.8,23.8,30.31,NW,310,13.0,13.0,45,0.00,,,0.00,Wunderground v.1.15,2017-02-27 18:10:00,
2017-02-27 13:16:00,44.0,23.5,30.31,West,271,11.0,18.0,44,0.00,,,0.00,Wunderground v.1.15,2017-02-27 18:16:00,
2017-02-27 13:22:00,44.2,24.2,30.31,West,272,9.0,10.0,45,0.00,,,0.00,Wunderground v.1.15,2017-02-27 18:22:00,
2017-02-27 13:28:00,44.2,23.6,30.31,SW,235,9.0,11.0,44,0.00,,,0.00,Wunderground v.1.15,2017-02-27 18:28:00,
2017-02-27 13:34:00,44.4,23.8,30.31,NNW,329,10.0,13.0,44,0.00,,,0.00,Wunderground v.1.15,2017-02-27 18:34:00,
2017-02-27 13:40:00,45.0,23.8,30.31,WSW,251,11.0,11.0,43,0.00,,,0.00,Wunderground v.1.15,2017-02-27 18:40:00,
2017-02-27 13:46:00,45.8,24.0,30.30,NW,308,9.0,12.0,42,0.00,,,0.00,Wunderground v.1.15,2017-02-27 18:46:00,
2017-02-27 13:52:00,46.3,23.9,30.30,West,269,9.0,12.0,41,0.00,,,0.00,Wunderground v.1.15,2017-02-27 18:52:00,
2017-02-27 13:58:00,45.9,24.1,30.30,WSW,244,9.0,16.0,42,0.00,,,0.00,Wunderground v.1.15,2017-02-27 18:58:00,
2017-02-27 14:04:00,45.2,23.4,30.30,WSW,242,12.0,16.0,42,0.00,,,0.00,Wunderground v.1.15,2017-02-27 19:04:00,